New York, NY

11:56 PM EDT on June 25, 2017 (GMT -0400)
La Guardia

Weather History for KLGA - January, 2015

Change the Weather History Date:

Friday, January 30, 2015

  Actual Average Record
Temperature  
Mean Temperature 29 °F 33 °F  
Max Temperature 37 °F 40 °F 63 °F (2006)
Min Temperature 20 °F 27 °F 4 °F (1948)
Degree Days  
Heating Degree Days 36 32  
Month to date heating degree days 1038 956  
Since 1 July heating degree days 2541 2562  
Cooling Degree Days 0 0  
Month to date cooling degree days 0 0  
Year to date cooling degree days 0 0  
Moisture  
Dew Point 22 °F    
Average Humidity 71    
Maximum Humidity 92    
Minimum Humidity 50    
Precipitation  
Precipitation 0.07 in 0.10 in 0.79 in (1946)
Month to date precipitation 4.90 3.07  
Year to date precipitation 4.90 3.07  
Snow  
Snow 1.50 in 0.30 in 4.60 in (1966)
Month to date snowfall 19.7 7.1  
Since 1 July snowfall 21.4 12.6  
Snow Depth 7.00 in    
Sea Level Pressure  
Sea Level Pressure 29.90 in    
Wind  
Wind Speed 18 mph (WNW)    
Max Wind Speed 36 mph    
Max Gust Speed 46 mph    
Visibility 8 miles    
Events Snow    
T = Trace of Precipitation, MM = Missing Value Source: NWS Daily Summary

Daily Weather History Graph

Daily Weather History Graph

Search for Another Location

Airport or City:

Trip Planner

Search our weather history database for the weather conditions in past years. The results will help you decide how hot, cold, wet, or windy it might be!

Date:

Astronomy

Jan. 30, 2015 Rise Set
Actual Time 7:07 AM EST 5:10 PM EST
Civil Twilight 6:38 AM EST 5:39 PM EST
Nautical Twilight 6:05 AM EST 6:12 PM EST
Astronomical Twilight 5:33 AM EST 6:44 PM EST
Moon 1:43 PM EST (1/30) 3:34 AM EST (1/30)
Length of Visible Light 11h 00m
Length of Day
10h 02m
Waxing Gibbous, 84% of the Moon is Illuminated
Jan 30
Waxing Gibbous
Feb 3
Full
Feb 11
Last Quarter
Feb 18
New
Feb 25
First Quarter

Hourly Weather History & Observations

Time (EST) Temp. Windchill Dew Point Humidity Pressure Visibility Wind Dir Wind Speed Gust Speed Precip Events Conditions
12:43 AM 30.2 °F 23.4 °F 28.4 °F 93% 29.97 in 1.0 mi South 6.9 mph - 0.02 in Snow Light Snow
12:51 AM 30.9 °F 23.5 °F 28.9 °F 92% 29.96 in 1.0 mi South 8.1 mph - 0.03 in Snow Light Snow
1:30 AM 32.0 °F 26.4 °F 28.4 °F 87% 29.94 in 3.0 mi South 5.8 mph - 0.01 in Snow Light Snow
1:47 AM 32.0 °F 24.2 °F 28.4 °F 87% 29.94 in 2.5 mi SW 9.2 mph - 0.02 in Snow Light Snow
1:51 AM 32.0 °F 24.2 °F 28.9 °F 88% 29.94 in 2.5 mi SSW 9.2 mph - 0.02 in Snow Light Snow
2:51 AM 33.1 °F 28.7 °F 28.9 °F 85% 29.90 in 3.0 mi South 4.6 mph - 0.01 in Snow Light Snow
3:51 AM 34.0 °F 29.8 °F 30.0 °F 85% 29.87 in 10.0 mi South 4.6 mph - 0.00 in   Overcast
4:51 AM 35.1 °F 28.6 °F 27.0 °F 72% 29.85 in 9.0 mi SW 8.1 mph - 0.00 in Snow Light Snow
5:51 AM 35.1 °F 29.3 °F 26.1 °F 70% 29.85 in 9.0 mi WSW 6.9 mph - 0.00 in Snow Light Snow
6:15 AM 33.8 °F 27.7 °F 24.8 °F 70% 29.84 in 9.0 mi West 6.9 mph 16.1 mph 0.00 in   Overcast
6:51 AM 33.1 °F 24.4 °F 25.0 °F 72% 29.85 in 8.0 mi WNW 11.5 mph - 0.00 in Snow Light Snow
7:51 AM 32.0 °F 25.6 °F 26.1 °F 79% 29.85 in 5.0 mi WNW 6.9 mph - 0.00 in Snow Light Snow
8:40 AM 33.8 °F 25.8 °F 26.6 °F 75% 29.87 in 2.0 mi WNW 10.4 mph 24.2 mph 0.01 in Snow Light Snow
8:51 AM 33.1 °F 23.9 °F 26.1 °F 75% 29.87 in 2.0 mi West 12.7 mph 20.7 mph 0.01 in Snow Light Snow
9:36 AM 33.8 °F 23.9 °F 26.6 °F 75% 29.86 in 7.0 mi WNW 15.0 mph - 0.00 in   Overcast
9:51 AM 32.0 °F 21.2 °F 26.1 °F 79% 29.86 in 8.0 mi NW 16.1 mph - 0.00 in   Overcast
10:51 AM 33.1 °F 23.0 °F 27.0 °F 78% 29.86 in 8.0 mi NW 15.0 mph 23.0 mph 0.00 in Snow Light Snow
11:51 AM 36.0 °F 25.0 °F 26.1 °F 67% 29.84 in 10.0 mi NW 20.7 mph 29.9 mph 0.00 in   Mostly Cloudy
12:51 PM 36.0 °F 25.0 °F 23.0 °F 59% 29.82 in 10.0 mi NW 20.7 mph 29.9 mph N/A   Mostly Cloudy
1:51 PM 36.0 °F 25.6 °F 21.9 °F 57% 29.82 in 10.0 mi NW 18.4 mph 29.9 mph N/A   Overcast
2:51 PM 37.0 °F 26.2 °F 21.0 °F 52% 29.83 in 10.0 mi NW 21.9 mph 27.6 mph N/A   Mostly Cloudy
3:51 PM 36.0 °F 24.7 °F 19.0 °F 50% 29.85 in 10.0 mi NW 21.9 mph 29.9 mph N/A   Scattered Clouds
4:51 PM 34.0 °F 21.8 °F 17.1 °F 50% 29.88 in 10.0 mi NW 23.0 mph 31.1 mph N/A   Scattered Clouds
5:51 PM 32.0 °F 18.1 °F 17.1 °F 54% 29.91 in 10.0 mi NNW 27.6 mph 33.4 mph N/A   Scattered Clouds
6:51 PM 28.0 °F 12.3 °F 12.9 °F 53% 29.94 in 10.0 mi NW 29.9 mph 40.3 mph N/A   Partly Cloudy
7:51 PM 25.0 °F 7.6 °F 12.0 °F 58% 29.96 in 10.0 mi NW 32.2 mph 36.8 mph N/A   Partly Cloudy
8:51 PM 23.0 °F 6.3 °F 10.0 °F 58% 29.99 in 10.0 mi NW 26.5 mph 35.7 mph N/A   Partly Cloudy
9:51 PM 21.9 °F 4.5 °F 9.0 °F 58% 30.01 in 10.0 mi NW 27.6 mph 35.7 mph N/A   Partly Cloudy
10:51 PM 21.0 °F 3.3 °F 8.1 °F 57% 30.00 in 10.0 mi NW 27.6 mph 42.6 mph N/A   Partly Cloudy
11:51 PM 19.9 °F 1.8 °F 7.0 °F 57% 30.01 in 10.0 mi NW 27.6 mph 34.5 mph N/A   Partly Cloudy